YAOGAN-30 P (44450 NORAD) Tracking and Keplerian Element Data

This shows tracking and keplerian element data for the satellite.

Feedback or suggestion? Click here.




ElementValue
Catalog44450
NameYAOGAN-30 P
Epoch Orbit3727
Epoch Day91.99294554
Epoch Year2020
RAAN286.1467
Inclination34.9968
Eccentricity0.0011425
Argument of Perigee286.4477
Mean Anonmoly73.4971
Mean Motion14.89740281
Decay Rate1.77E-06
L11 44450U 19045B 20091.99294554 .00000177 00000-0 20895-4 0 9998
L22 44450 34.9968 286.1467 0011425 286.4477 73.4971 14.89740281 37277

Live tracking and technical data element details for YAOGAN-30 P (NORAD 44450). YAOGAN-30 P can be tracked NOW for your location showing map with azimuth and elevation plus other details from your city location.

Track the satellite on the map from your city or location and see movement details for azimuth, elevation, latitude, longitude, range, height, and movement on the map or in text.







IsCatalogInMostPopularTable: catalog: 44450, numindb: 42
Update: records affected: 1



GetName: 44450 YAOGAN-30 P

Hit Count: updated at: Thu, 02 Apr 2020 14:08:37 GMT